Location: Andershausen
(51.8462°N, 9.8595°E)
Time: 06:34:52
(UTC+00:00)

Cosmos 1932 - Pass Details

Date: 18 November 2025
Orbit: 921 x 1008 km, 65.0° (Epoch: 11 December)

Event Time Altitude Azimuth Distance (km) Brightness Sun altitude
Rises 18:07:10 0° 206° (SSW) 3,637 7.8 -24.5°
Reaches altitude 10° 18:09:43 10° 203° (SSW) 2,707 7.1 -24.9°
Maximum altitude 18:15:58 63° 125° (SE) 1,095 4.4 -25.9°
Enters shadow 18:16:22 62° 106° (ESE) 1,107 4.4 -26.0°
